2024-153H

Last updated on Fri Sep 06 2024 00:02:06 GMT+0000 (Coordinated Universal Time)

1 60752U 24153H 24242.34728060 -.00000069 00000+0 00000+0 0 9993 2 60752 97.3719 0.5652 0013970 33.0832 33.4934 15.22204973 28
UTC large
Height (km)
Speed (km/s)
/
Latitude / Longitude
Inclination (degrees)
Orbital Period (minutes)
Azimuth
Elevation
Range (km)
Doppler Factor

Next 0 passes for location: London (51.5072 / 0.1276)

Sorry there are no passes over London.